User: anonymous   Login
Location: Unspecified
(0.0000°N, 0.0000°E)
Time: 17:46:55
(UTC+00:00)
Language:

TACSAT 4 - Orbit

View from above orbital plane
View from above orbital plane
View from above satellite
View from above satellite

Ground track
Ground track

The orbit data is extracted from the following two-line orbital elements,

1 37818U 11052A   17085.38807439 +.00000326 +00000-0 +91491-3 0  9997
2 37818 063.2335 166.1966 4533641 212.6945 286.6294 06.02589723120856
Epoch (UTC): 26 March 2017 09:18:49
Eccentricity: 0.4533641
inclination: 63.2335°
perigee height: 595 km
apogee height: 12161 km
right ascension of ascending node: 166.1966°
argument of perigee: 212.6945°
revolutions per day: 6.02589723
mean anomaly at epoch: 286.6294°
orbit number at epoch: 12085

The dashed part of the orbit path shows where the satellite is in the earth's shadow,  

DLR